This is the latest recevied weather packets stored in our database for station/object KD2RHT-13. If no packets are shown the sender has not sent any weather packets the latest 10 day(s).
| Time | Temp. | Humidity | Pressure | Rain* | Wind** | Luminosity | Snow |
|---|---|---|---|---|---|---|---|
| 1777824412 | 11.67° C | 45% | 1014.5 hPa | 0 mm | - | 772 W/m² | - |
| 1777824107 | 11.11° C | 47% | 1014.5 hPa | 0 mm | - | 775 W/m² | - |
| 1777823804 | 11.11° C | 45% | 1014.9 hPa | 0 mm | - | 150 W/m² | - |
| 1777823501 | 11.67° C | 46% | 1014.5 hPa | 0 mm | - | 397 W/m² | - |
| 1777823198 | 11.11° C | 51% | 1014.9 hPa | 0 mm | - | 835 W/m² | - |
| 1777822896 | 11.11° C | 48% | 1014.9 hPa | 0 mm | - | 839 W/m² | - |
| 1777822594 | 11.11° C | 48% | 1014.9 hPa | 0 mm | - | 839 W/m² | - |
| 1777822291 | 11.11° C | 50% | 1014.9 hPa | 0 mm | - | 848 W/m² | - |
| 1777821988 | 11.11° C | 48% | 1015.2 hPa | 0 mm | - | 850 W/m² | - |
| 1777821686 | 11.11° C | 48% | 1014.9 hPa | 0 mm | - | 858 W/m² | - |
| 1777821384 | 10.56° C | 49% | 1014.9 hPa | 0 mm | - | 861 W/m² | - |
| 1777821080 | 10° C | 48% | 1014.9 hPa | 0 mm | - | 843 W/m² | - |
| 1777820777 | 10.56° C | 46% | 1015.2 hPa | 0 mm | - | 836 W/m² | - |
| 1777820474 | 10° C | 48% | 1015.2 hPa | 0 mm | - | 815 W/m² | - |
| 1777820171 | 10.56° C | 49% | 1014.9 hPa | 0 mm | - | 807 W/m² | - |
| 1777819868 | 10° C | 49% | 1015.2 hPa | 0 mm | - | 798 W/m² | - |
| 1777819565 | 10° C | 50% | 1015.2 hPa | 0 mm | - | 796 W/m² | - |
| 1777819263 | 10° C | 50% | 1015.2 hPa | 0 mm | - | 787 W/m² | - |
| 1777818959 | 10° C | 48% | 1015.2 hPa | 0 mm | - | 774 W/m² | - |
| 1777818655 | 10° C | 47% | 1015.6 hPa | 0 mm | - | 773 W/m² | - |
| 1777818353 | 10° C | 51% | 1015.6 hPa | 0 mm | - | 753 W/m² | - |
| 1777818049 | 10° C | 50% | 1015.2 hPa | 0 mm | - | 740 W/m² | - |
| 1777817746 | 10° C | 50% | 1015.2 hPa | 0 mm | - | 741 W/m² | - |
| 1777817444 | 10° C | 53% | 1015.2 hPa | 0 mm | - | 716 W/m² | - |
| 1777817139 | 10° C | 56% | 1015.2 hPa | 0 mm | - | 687 W/m² | - |
* Rain latest hour (hover to see other rain measurements)
** Current wind speed in m/s (hover to see current wind gust speed)